Location: UBC Liquid-Mirror Observatory
(49.2876°N, 122.5728°W)
Time: 16:40:48
(UTC-07:00)

Amateur Radio Satellites - All Passes

Search period start: 29 July 2016 16:10
Search period end: 30 July 2016 16:10
Location: UBC Liquid-Mirror Observatory, 49.2876°N, 122.5728°W

Satellite Date Start Highest point End Downlink Frequencies (MHz)
Time Altitude Azimuth
NOAA 15 29 Jul 16:19:16 16:21:14 12° 50° (NE) 16:23:12 137.62
SWISSCUBE 29 Jul 16:25:40 16:30:14 46° 292° (WNW) 16:34:45 437.505
HORYU 2 29 Jul 16:34:45 16:38:59 42° 68° (ENE) 16:43:15 437.375
AO-85 29 Jul 16:34:58 16:38:49 21° 333° (NNW) 16:42:30 145.980
BRITE-PL 29 Jul 16:35:32 16:37:13 12° 56° (NE) 16:38:54 437.365/2234.400
AO-7 29 Jul 16:37:04 16:45:06 49° 259° (W) 16:53:12 29.400- 29.500
RS-15 29 Jul 16:37:39 16:49:35 59° 244° (WSW) 17:01:25 29.354- 29.394
STARS 29 Jul 16:40:34 16:43:49 20° 92° (E) 16:47:03 437.465
Cosmos 2499 29 Jul 16:42:31 16:51:24 75° 282° (WNW) 16:59:57 435.465 / 435.565
BEESAT 29 Jul 16:46:56 16:51:13 34° 295° (WNW) 16:55:28 436.000
MOZHAYETS 4 29 Jul 17:02:51 17:07:26 65° 102° (ESE) 17:11:58
NOAA 18 29 Jul 17:04:43 17:08:57 23° 56° (ENE) 17:13:11 137.9125
ITUPSAT 1 29 Jul 17:12:22 17:16:02 22° 300° (WNW) 17:19:39 437.325
HO-68 29 Jul 17:20:19 17:22:21 11° 36° (NE) 17:24:24 435.675
Cubesat XI-IV 29 Jul 17:22:02 17:26:32 28° 60° (ENE) 17:31:02 437.490
GOMX 1 29 Jul 17:22:19 17:25:05 17° 58° (ENE) 17:27:57 467.674
CUTE-I 29 Jul 17:44:09 17:49:08 40° 65° (ENE) 17:54:07 437.470
KKS-1 29 Jul 17:45:07 17:49:32 57° 289° (WNW) 17:53:56 437.445
SO-50 29 Jul 17:46:25 17:49:41 19° 248° (WSW) 17:52:54 436.795
NOAA 15 29 Jul 17:54:51 18:00:01 62° 70° (ENE) 18:05:12 137.62
GONETS M04 29 Jul 17:58:49 18:05:52 27° 302° (WNW) 18:13:01
PHONESAT 2.4 29 Jul 18:05:18 18:07:14 16° 174° (S) 18:09:11 2401.200-2431.200
YUBILEINY 29 Jul 18:05:27 18:07:35 11° 38° (NE) 18:09:43 435.215
BRITE-PL 29 Jul 18:10:54 18:15:03 88° 260° (W) 18:19:20 437.365/2234.400
HORYU 2 29 Jul 18:12:02 18:15:43 25° 266° (W) 18:19:26 437.375
STARS 29 Jul 18:16:08 18:20:29 53° 290° (WNW) 18:24:48 437.465
AO-85 29 Jul 18:19:00 18:21:05 12° 358° (N) 18:23:08 145.980
LilacSat-2 29 Jul 18:21:09 18:25:01 70° 73° (ENE) 18:28:55 437.200
CUBESAT XI-V 29 Jul 18:29:45 18:34:22 66° 102° (ESE) 18:38:57 437.345
CINEMA 3 29 Jul 18:30:13 18:32:41 14° 55° (NE) 18:35:11 145.822/145.860
BEESAT 3 29 Jul 18:34:18 18:38:04 47° 123° (ESE) 18:41:54 437.485
PCSat 29 Jul 18:34:52 18:39:01 23° 108° (ESE) 18:43:12 145.827
DOVE 4 29 Jul 18:37:08 18:41:14 39° 67° (ENE) 18:45:37 437.250
Cosmos 2499 29 Jul 18:39:51 18:46:06 21° 305° (NW) 18:52:11 435.465 / 435.565
MOZHAYETS 4 29 Jul 18:41:00 18:44:09 19° 301° (WNW) 18:47:17
NOAA 18 29 Jul 18:43:33 18:49:06 72° 256° (WSW) 18:54:41 137.9125
BEESAT 2 29 Jul 18:46:22 18:49:59 35° 120° (ESE) 18:53:38 435.950
RS-15 29 Jul 18:53:07 18:59:12 15° 268° (W) 19:05:16 29.354- 29.394
GOMX 1 29 Jul 18:58:28 19:02:40 65° 259° (W) 19:07:08 467.674
CANX-2 29 Jul 18:58:45 19:01:48 19° 62° (ENE) 19:04:51 2200.000
Cubesat XI-IV 29 Jul 19:01:04 19:06:19 53° 260° (W) 19:11:37 437.490
HO-68 29 Jul 19:01:39 19:08:11 40° 59° (ENE) 19:14:45 435.675
CUTE 1.7 + AOD 2 29 Jul 19:11:17 19:14:35 22° 63° (ENE) 19:17:54 437.475
CUBEBUG 2 29 Jul 19:18:17 19:20:35 14° 55° (NE) 19:22:54 437.445
CUTE-I 29 Jul 19:24:21 19:29:14 35° 264° (W) 19:34:09 437.470
STRAND 1 29 Jul 19:30:50 19:34:38 21° 91° (E) 19:38:24 437.568
NOAA 15 29 Jul 19:36:14 19:40:13 22° 269° (W) 19:44:14 137.62
Cosmos 2491 29 Jul 19:40:15 19:42:16 11° 66° (ENE) 19:44:18 435.465 / 435.565
PHONESAT 2.4 29 Jul 19:41:19 19:43:03 14° 191° (S) 19:44:48 2401.200-2431.200
SEEDS 29 Jul 19:44:32 19:48:19 33° 67° (ENE) 19:52:06 437.485
COMPASS 1 29 Jul 19:51:06 19:54:40 28° 66° (ENE) 19:58:14 437.405
Cosmos 2504 29 Jul 19:54:49 19:59:12 15° 47° (NE) 20:03:25 435.465 / 435.565
O/OREOS (USA 219) 29 Jul 19:55:47 19:59:05 21° 102° (ESE) 20:02:25 437.305
LilacSat-2 29 Jul 19:58:15 19:59:48 12° 272° (W) 20:01:20 437.200
YUBILEINY 29 Jul 19:59:22 20:07:38 41° 67° (ENE) 20:15:48 435.215
AO-85 29 Jul 20:00:10 20:03:26 18° 23° (NNE) 20:06:31 145.980
CINEMA 3 29 Jul 20:04:23 20:09:00 84° 77° (ENE) 20:13:54 145.822/145.860
CUBESAT XI-V 29 Jul 20:08:07 20:11:18 19° 300° (WNW) 20:14:28 437.345
BEESAT 3 29 Jul 20:12:32 20:15:56 27° 322° (NW) 20:19:23 437.485
DOVE 4 29 Jul 20:15:24 20:19:07 26° 268° (W) 20:23:02 437.250
AAUSAT CUBESAT 2 29 Jul 20:16:07 20:19:58 39° 69° (ENE) 20:23:51 437.432
FUNcube-1 29 Jul 20:16:25 20:19:43 20° 61° (ENE) 20:23:01 145.935
PCSat 29 Jul 20:16:32 20:21:57 69° 309° (NW) 20:27:24 145.827
AUBIESAT-1 29 Jul 20:16:45 20:17:42 11° 46° (NE) 20:18:39 437.475
ZACube-1 29 Jul 20:18:47 20:22:15 22° 62° (ENE) 20:25:46 437.345
UWE-3 29 Jul 20:24:02 20:28:11 34° 66° (ENE) 20:32:24 435.000/436.395/437.385
BEESAT 2 29 Jul 20:24:11 20:27:50 34° 320° (NW) 20:31:31 435.950
NOAA 18 29 Jul 20:28:50 20:30:45 12° 275° (W) 20:32:41 137.9125
CANX-2 29 Jul 20:33:07 20:37:19 54° 260° (W) 20:41:31 2200.000
ISS 29 Jul 20:35:28 20:37:30 16° 138° (SE) 20:39:32 145.825
CUTE 1.7 + AOD 2 29 Jul 20:46:05 20:50:11 45° 261° (W) 20:54:18 437.475
HO-68 29 Jul 20:48:45 20:55:44 53° 259° (W) 21:02:48 435.675
CUBEBUG 2 29 Jul 20:51:46 20:56:26 82° 75° (ENE) 21:01:13 437.445
Oscar 11 29 Jul 20:53:50 20:57:56 42° 69° (ENE) 21:02:03 145.826/435.025
HUMSAT D 29 Jul 21:08:22 21:11:02 16° 60° (ENE) 21:13:43 437.325/437.525
STRAND 1 29 Jul 21:09:12 21:14:15 63° 290° (WNW) 21:19:17 437.568
AIST 2 29 Jul 21:11:13 21:15:14 55° 124° (SE) 21:19:18 435.215
SEEDS 29 Jul 21:20:22 21:24:02 28° 265° (W) 21:27:43 437.485
M-CUBED/EXP-1 PRIME 29 Jul 21:23:59 21:27:46 44° 63° (ENE) 21:31:52 437.505
COMPASS 1 29 Jul 21:26:22 21:30:09 33° 264° (W) 21:33:57 437.405
Cosmos 2491 29 Jul 21:28:35 21:36:54 53° 89° (E) 21:45:15 435.465 / 435.565
O/OREOS (USA 219) 29 Jul 21:33:46 21:38:08 52° 301° (WNW) 21:42:33 437.305
AO-85 29 Jul 21:40:19 21:44:52 62° 47° (NE) 21:49:00 145.980
PRISM 29 Jul 21:42:15 21:46:14 47° 100° (E) 21:50:13 437.425
CINEMA 3 29 Jul 21:44:34 21:46:52 14° 275° (W) 21:49:14 145.822/145.860
Cosmos 2504 29 Jul 21:46:45 21:54:52 58° 73° (ENE) 22:02:21 435.465 / 435.565
AUBIESAT-1 29 Jul 21:47:17 21:51:14 62° 66° (ENE) 21:55:31 437.475
DELFI C3 29 Jul 21:48:46 21:52:43 68° 73° (ENE) 21:56:40 145.870
FUNcube-1 29 Jul 21:51:01 21:55:32 61° 260° (W) 22:00:06 145.935
AAUSAT CUBESAT 2 29 Jul 21:52:17 21:55:37 23° 267° (W) 21:58:57 437.432
ZACube-1 29 Jul 21:53:43 21:58:12 54° 260° (W) 22:02:44 437.345
BEESAT 3 29 Jul 21:54:18 21:54:54 10° 345° (NNW) 21:55:31 437.485
YUBILEINY 29 Jul 21:56:14 22:04:48 57° 270° (W) 22:13:18 435.215
UWE-3 29 Jul 22:00:26 22:04:37 33° 265° (W) 22:08:53 435.000/436.395/437.385
PCSat 29 Jul 22:02:18 22:06:20 21° 331° (NNW) 22:10:22 145.827
BEESAT 2 29 Jul 22:05:25 22:06:49 11° 342° (NNW) 22:08:14 435.950
UNISAT 6 29 Jul 22:09:13 22:10:36 11° 85° (E) 22:11:57 437.425
ISS 29 Jul 22:10:14 22:13:29 70° 157° (SSE) 22:16:45 145.825
CUBEBUG 1 29 Jul 22:30:23 22:32:54 15° 58° (ENE) 22:35:26 437.445
Oscar 11 29 Jul 22:30:44 22:34:15 23° 267° (W) 22:37:45 145.826/435.025
CUBEBUG 2 29 Jul 22:31:12 22:33:41 14° 274° (W) 22:36:11 437.445
ESTCUBE 1 29 Jul 22:32:21 22:35:51 23° 62° (ENE) 22:39:22 437.505/2401.250
VELOX 1 29 Jul 22:37:01 22:39:43 16° 58° (ENE) 22:42:26 145.980
HUMSAT D 29 Jul 22:41:53 22:46:11 69° 258° (WSW) 22:50:30 437.325/437.525
ANTELSAT 29 Jul 22:45:40 22:49:29 25° 92° (E) 22:53:13 437.575/2403.000
AIST 2 29 Jul 22:50:27 22:53:59 27° 324° (NW) 22:57:33 435.215
STRAND 1 29 Jul 22:50:37 22:52:28 12° 309° (NW) 22:54:17 437.568
M-CUBED/EXP-1 PRIME 29 Jul 22:59:27 23:02:32 22° 263° (W) 23:05:50 437.505
DX 1 29 Jul 23:10:05 23:13:32 24° 63° (ENE) 23:17:01 434.975-435.025
O/OREOS (USA 219) 29 Jul 23:17:22 23:18:39 11° 324° (NW) 23:19:55 437.305
UKube-1 29 Jul 23:17:59 23:21:22 23° 62° (ENE) 23:24:46 .
PRISM 29 Jul 23:18:14 23:21:16 20° 298° (WNW) 23:24:17 437.425
AISAT 29 Jul 23:20:29 23:24:34 39° 67° (ENE) 23:28:41 437.250
AO-85 29 Jul 23:21:40 23:24:49 20° 248° (WSW) 23:27:48 145.980
AIST 1 29 Jul 23:22:34 23:25:38 18° 66° (ENE) 23:28:41
AUBIESAT-1 29 Jul 23:23:43 23:26:11 16° 266° (W) 23:28:45 437.475
Cosmos 2491 29 Jul 23:25:50 23:33:59 43° 292° (WNW) 23:42:12 435.465 / 435.565
TIGRISAT 29 Jul 23:25:59 23:30:34 55° 100° (E) 23:35:01 435.000
DELFI C3 29 Jul 23:26:14 23:28:02 13° 272° (W) 23:29:48 145.870
QB50P2 29 Jul 23:32:33 23:34:36 13° 88° (E) 23:36:39 145.880/145.840
POLYITAN 1 29 Jul 23:35:08 23:37:16 13° 88° (E) 23:39:23 437.675
Cosmos 2504 29 Jul 23:40:42 23:47:51 35° 277° (W) 23:54:32 435.465 / 435.565
UNISAT 6 29 Jul 23:43:23 23:48:04 85° 103° (ESE) 23:52:37 437.425
SPROUT 29 Jul 23:44:43 23:48:30 32° 66° (ENE) 23:52:20 437.525
ISS 29 Jul 23:46:48 23:50:01 55° 356° (N) 23:53:15 145.825
PCSat 29 Jul 23:49:58 23:51:57 12° 357° (N) 23:53:56 145.827
50 SAT 29 Jul 23:55:30 23:59:10 85° 76° (ENE) 00:02:50 437.505
YUBILEINY 29 Jul 23:56:21 23:59:30 12° 293° (WNW) 00:02:38 435.215
CUBEBUG 1 30 Jul 00:04:20 00:08:39 75° 257° (WSW) 00:13:01 437.445
ESTCUBE 1 30 Jul 00:08:03 00:12:24 48° 261° (W) 00:16:46 437.505/2401.250
GONETS M04 30 Jul 00:08:49 00:13:27 15° 46° (NE) 00:18:05
VELOX 1 30 Jul 00:11:17 00:15:40 73° 257° (WSW) 00:20:06 145.980
NANOSAT C BR1 30 Jul 00:14:05 00:17:53 30° 95° (E) 00:21:38 145.865
DUCHIFAT 1 30 Jul 00:16:50 00:20:36 30° 95° (E) 00:24:21 145.980
BUGSAT 1 30 Jul 00:19:15 00:21:51 16° 90° (E) 00:24:26 437.445
JAS-2 30 Jul 00:19:45 00:22:54 15° 89° (E) 00:26:09 435.910
ANTELSAT 30 Jul 00:21:59 00:26:24 44° 292° (WNW) 00:30:42 437.575/2403.000
TISAT 1 30 Jul 00:29:08 00:32:34 25° 64° (ENE) 00:36:02 437.305
AIST 2 30 Jul 00:32:46 00:33:51 11° 347° (NNW) 00:34:56 435.215
QB50P1 30 Jul 00:38:06 00:42:21 54° 100° (E) 00:46:32 145.935-145.965
Cosmos 2499 30 Jul 00:38:16 00:41:51 13° 46° (NE) 00:45:21 435.465 / 435.565
POPSAT HIP 1 30 Jul 00:44:51 00:49:08 62° 101° (E) 00:53:23 437.405
DX 1 30 Jul 00:45:23 00:49:31 44° 261° (W) 00:53:42 434.975-435.025
BEESAT 30 Jul 00:45:40 00:47:05 11° 52° (NE) 00:48:31 436.000
UKube-1 30 Jul 00:53:02 00:57:10 45° 260° (W) 01:01:20 .
AISAT 30 Jul 00:57:30 01:01:10 26° 266° (W) 01:04:53 437.250
AIST 1 30 Jul 00:59:19 01:03:35 54° 265° (W) 01:07:50
TIGRISAT 30 Jul 01:03:23 01:06:54 22° 299° (WNW) 01:10:20 435.000
QB50P2 30 Jul 01:06:39 01:10:57 75° 286° (WNW) 01:15:14 145.880/145.840
ITUPSAT 1 30 Jul 01:08:57 01:12:02 17° 57° (ENE) 01:15:06 437.325
POLYITAN 1 30 Jul 01:09:17 01:13:36 74° 286° (WNW) 01:17:52 437.675
BEESAT 3 30 Jul 01:10:27 01:13:34 21° 33° (NNE) 01:16:41 437.485
SPROUT 30 Jul 01:20:39 01:24:27 30° 265° (W) 01:28:17 437.525
UNISAT 6 30 Jul 01:21:28 01:24:08 15° 303° (WNW) 01:26:45 437.425
BEESAT 2 30 Jul 01:23:00 01:25:53 19° 30° (NNE) 01:28:46 435.950
ISS 30 Jul 01:23:23 01:26:40 77° 17° (NNE) 01:29:55 145.825
Cosmos 2491 30 Jul 01:31:24 01:33:55 11° 320° (NW) 01:36:26 435.465 / 435.565
PCSat 30 Jul 01:34:11 01:37:42 17° 24° (NNE) 01:41:13 145.827
NANOSAT C BR1 30 Jul 01:49:47 01:53:37 32° 294° (WNW) 01:57:25 145.865
DUCHIFAT 1 30 Jul 01:52:29 01:56:18 32° 294° (WNW) 02:00:06 145.980
BUGSAT 1 30 Jul 01:53:24 01:57:39 63° 287° (WNW) 02:01:51 437.445
SWISSCUBE 30 Jul 01:58:26 02:03:01 46° 68° (ENE) 02:07:36 437.505
JAS-2 30 Jul 02:03:20 02:08:39 84° 286° (WNW) 02:14:25 435.910
TISAT 1 30 Jul 02:04:05 02:08:03 39° 262° (W) 02:12:04 437.305
GONETS M04 30 Jul 02:04:09 02:12:48 54° 72° (ENE) 02:21:24
Oscar 19 30 Jul 02:12:32 02:17:23 38° 97° (E) 02:22:12 437.125/150
AIST 2 30 Jul 02:13:16 02:14:13 11° 12° (NNE) 02:15:10 435.215
QB50P1 30 Jul 02:14:40 02:17:46 20° 299° (WNW) 02:20:51 145.935-145.965
BEESAT 30 Jul 02:19:14 02:23:58 64° 71° (ENE) 02:28:44 436.000
Gurwin Techsat 1B 30 Jul 02:19:26 02:23:34 22° 91° (E) 02:27:39 435.225
POPSAT HIP 1 30 Jul 02:21:38 02:24:30 18° 300° (WNW) 02:27:21 437.405
Cosmos 2499 30 Jul 02:29:35 02:37:19 54° 72° (ENE) 02:44:28 435.465 / 435.565
MOZHAYETS 4 30 Jul 02:33:53 02:36:33 15° 57° (ENE) 02:39:14
ITUPSAT 1 30 Jul 02:44:29 02:49:18 79° 257° (WSW) 02:54:08 437.325
QB50P2 30 Jul 02:44:49 02:46:00 11° 305° (NW) 02:47:10 145.880/145.840
POLYITAN 1 30 Jul 02:47:31 02:48:38 11° 305° (NW) 02:49:44 437.675
BEESAT 3 30 Jul 02:47:42 02:51:41 72° 233° (SW) 02:55:36 437.485
ISS 30 Jul 03:00:02 03:02:54 28° 215° (SW) 03:05:44 145.825
BEESAT 2 30 Jul 03:00:16 03:04:18 87° 48° (NE) 03:08:18 435.950
KKS-1 30 Jul 03:11:11 03:15:01 29° 64° (ENE) 03:18:52 437.445
PCSat 30 Jul 03:17:07 03:22:25 50° 47° (NE) 03:27:41 145.827
SWISSCUBE 30 Jul 03:37:04 03:41:01 25° 267° (W) 03:44:59 437.505
STARS 30 Jul 03:40:53 03:44:42 29° 65° (ENE) 03:48:34 437.465
CUSAT 1 30 Jul 03:47:17 03:50:42 46° 100° (E) 03:53:31 437.405
JAS-2 30 Jul 03:50:04 03:53:07 16° 306° (NW) 03:56:15 435.910
AIST 2 30 Jul 03:50:36 03:54:07 25° 35° (NE) 03:57:39 435.215
Oscar 19 30 Jul 03:52:00 03:56:40 35° 296° (WNW) 04:01:19 437.125/150
ITAMSAT 1 30 Jul 03:53:55 03:58:58 47° 99° (E) 04:03:57 435.822/435.867
Gurwin Techsat 1B 30 Jul 03:58:40 04:03:56 61° 290° (WNW) 04:09:10 435.225
BEESAT 30 Jul 03:58:55 04:02:12 18° 270° (W) 04:05:31 436.000
GONETS M04 30 Jul 04:01:23 04:09:24 41° 275° (W) 04:17:27
CUBESAT XI-V 30 Jul 04:02:03 04:04:44 16° 58° (ENE) 04:07:26 437.345
MOZHAYETS 4 30 Jul 04:08:29 04:13:07 84° 255° (WSW) 04:17:47
O/OREOS (USA 219) 30 Jul 04:21:50 04:24:34 16° 42° (NE) 04:27:19 437.305
Cosmos 2499 30 Jul 04:23:12 04:30:07 36° 276° (W) 04:36:37 435.465 / 435.565
ITUPSAT 1 30 Jul 04:26:39 04:27:56 11° 274° (W) 04:29:12 437.325
AO-7 30 Jul 04:33:21 04:41:22 47° 100° (E) 04:49:17 29.400- 29.500
DANDE 30 Jul 04:39:43 04:44:35 72° 101° (E) 04:48:14 436.750
BEESAT 2 30 Jul 04:39:50 04:41:31 12° 250° (WSW) 04:43:12 435.950
KKS-1 30 Jul 04:47:22 04:51:28 36° 262° (W) 04:55:39 437.445
RS-15 30 Jul 04:59:27 05:06:05 17° 94° (E) 05:12:49 29.354- 29.394
PCSat 30 Jul 05:00:50 05:05:40 33° 247° (WSW) 05:10:28 145.827
STARS 30 Jul 05:16:57 05:20:59 35° 263° (W) 05:25:05 437.465
AIST 2 30 Jul 05:28:48 05:32:56 60° 235° (SW) 05:37:02 435.215
ITAMSAT 1 30 Jul 05:33:48 05:38:14 29° 299° (WNW) 05:42:39 435.822/435.867
CUBESAT XI-V 30 Jul 05:36:55 05:41:32 82° 256° (WSW) 05:46:10 437.345
Gurwin Techsat 1B 30 Jul 05:40:50 05:42:52 12° 310° (NW) 05:44:54 435.225
MOZHAYETS 4 30 Jul 05:49:43 05:51:01 11° 275° (W) 05:52:20
HORYU 2 30 Jul 05:57:41 06:02:01 46° 99° (E) 06:06:18 437.375
CUTE-I 30 Jul 05:59:38 06:00:38 10° 84° (E) 06:01:39 437.470
O/OREOS (USA 219) 30 Jul 06:00:09 06:04:43 83° 65° (ENE) 06:09:17 437.305
NOAA 15 30 Jul 06:06:48 06:10:04 16° 88° (E) 06:13:20 137.62
BRITE-PL 30 Jul 06:10:35 06:14:31 23° 93° (E) 06:18:39 437.365/2234.400
DANDE 30 Jul 06:25:56 06:27:28 12° 293° (WNW) 06:28:53 436.750
AO-7 30 Jul 06:26:16 06:34:15 51° 301° (WNW) 06:42:10 29.400- 29.500
STRAND 1 30 Jul 06:50:22 06:55:15 45° 67° (ENE) 07:00:09 437.568
GOMX 1 30 Jul 06:55:09 06:59:38 30° 94° (E) 07:04:18 467.674
NOAA 18 30 Jul 07:01:31 07:06:36 35° 97° (E) 07:11:36 137.9125
RS-15 30 Jul 07:04:31 07:15:50 65° 118° (ESE) 07:27:45 29.354- 29.394
Cubesat XI-IV 30 Jul 07:13:53 07:19:02 45° 99° (E) 07:24:08 437.490
CUBESAT XI-V 30 Jul 07:18:43 07:19:41 11° 275° (W) 07:20:40 437.345
LilacSat-2 30 Jul 07:24:37 07:28:28 59° 100° (E) 07:32:16 437.200
Cosmos 2491 30 Jul 07:33:20 07:41:08 34° 63° (ENE) 07:48:53 435.465 / 435.565
HORYU 2 30 Jul 07:34:44 07:38:20 24° 298° (WNW) 07:41:54 437.375
CUTE-I 30 Jul 07:36:21 07:41:42 69° 103° (ESE) 07:47:00 437.470
O/OREOS (USA 219) 30 Jul 07:41:20 07:43:27 13° 262° (W) 07:45:35 437.305
NOAA 15 30 Jul 07:45:12 07:50:30 81° 287° (WNW) 07:55:47 137.62
BRITE-PL 30 Jul 07:48:31 07:53:14 54° 289° (WNW) 07:58:18 437.365/2234.400
CINEMA 3 30 Jul 07:55:44 07:59:09 18° 88° (E) 08:02:31 145.822/145.860
SO-50 30 Jul 08:02:43 08:07:26 51° 123° (ESE) 08:12:08 436.795
DOVE 4 30 Jul 08:08:14 08:13:24 64° 101° (E) 08:18:39 437.250
HO-68 30 Jul 08:12:03 08:17:54 26° 91° (E) 08:23:43 435.675
CANX-2 30 Jul 08:14:33 08:17:39 20° 91° (E) 08:20:44 2200.000
AO-7 30 Jul 08:20:20 08:25:10 17° 325° (NW) 08:30:00 29.400- 29.500
CUTE 1.7 + AOD 2 30 Jul 08:27:05 08:30:27 23° 93° (E) 08:33:48 437.475
STRAND 1 30 Jul 08:30:09 08:34:36 29° 266° (W) 08:39:04 437.568
GOMX 1 30 Jul 08:33:02 08:37:51 45° 291° (WNW) 08:42:54 467.674
PRISM 30 Jul 08:35:24 08:39:25 61° 72° (ENE) 08:43:27 437.425
CUBEBUG 2 30 Jul 08:40:03 08:42:35 14° 86° (E) 08:45:04 437.445
NOAA 18 30 Jul 08:42:07 08:47:20 42° 296° (WNW) 08:52:29 137.9125
Cubesat XI-IV 30 Jul 08:54:16 08:58:58 32° 298° (WNW) 09:03:38 437.490
TIGRISAT 30 Jul 08:54:43 08:56:52 13° 55° (NE) 08:59:01 435.000
SEEDS 30 Jul 08:59:28 09:03:18 34° 96° (E) 09:07:06 437.485
LilacSat-2 30 Jul 09:00:03 09:02:21 15° 299° (WNW) 09:04:38 437.200
COMPASS 1 30 Jul 09:04:45 09:08:20 28° 94° (E) 09:11:55 437.405
YUBILEINY 30 Jul 09:06:05 09:13:57 39° 84° (E) 09:21:52 435.215
UNISAT 6 30 Jul 09:11:00 09:14:13 19° 59° (ENE) 09:17:27 437.425
CUTE-I 30 Jul 09:17:14 09:21:17 22° 302° (WNW) 09:25:18 437.470
RS-15 30 Jul 09:17:17 09:28:48 56° 326° (NW) 09:40:53 29.354- 29.394
NOAA 15 30 Jul 09:26:29 09:29:30 16° 307° (NW) 09:32:32 137.62
AAUSAT CUBESAT 2 30 Jul 09:29:19 09:33:13 40° 97° (E) 09:37:06 437.432
Cosmos 2491 30 Jul 09:30:00 09:38:40 68° 267° (W) 09:47:21 435.465 / 435.565
CINEMA 3 30 Jul 09:31:45 09:36:47 71° 287° (WNW) 09:41:45 145.822/145.860
FUNcube-1 30 Jul 09:35:40 09:39:01 20° 91° (E) 09:42:17 145.935
ZACube-1 30 Jul 09:38:27 09:42:02 23° 92° (E) 09:45:33 437.345
SO-50 30 Jul 09:43:40 09:48:08 34° 323° (NW) 09:52:32 436.795
UWE-3 30 Jul 09:45:32 09:49:53 39° 97° (E) 09:54:05 435.000/436.395/437.385
DOVE 4 30 Jul 09:46:41 09:50:41 23° 299° (WNW) 09:54:45 437.250
ANTELSAT 30 Jul 09:47:59 09:52:16 36° 66° (ENE) 09:56:34 437.575/2403.000
CANX-2 30 Jul 09:49:43 09:53:47 47° 290° (WNW) 09:57:49 2200.000
HO-68 30 Jul 09:59:06 10:06:18 74° 292° (WNW) 10:13:28 435.675
CUTE 1.7 + AOD 2 30 Jul 10:02:30 10:06:28 40° 291° (WNW) 10:10:24 437.475
QB50P1 30 Jul 10:03:09 10:03:29 10° 54° (NE) 10:03:49 145.935-145.965
POPSAT HIP 1 30 Jul 10:08:48 10:10:12 11° 55° (NE) 10:11:37 437.405
Oscar 11 30 Jul 10:12:37 10:16:49 47° 99° (E) 10:20:58 145.826/435.025
PRISM 30 Jul 10:12:49 10:15:08 15° 270° (W) 10:17:28 437.425
CUBEBUG 2 30 Jul 10:15:04 10:19:49 79° 286° (WNW) 10:24:25 437.445
HUMSAT D 30 Jul 10:22:29 10:24:51 15° 89° (E) 10:27:11 437.325/437.525
TIGRISAT 30 Jul 10:28:06 10:32:46 78° 74° (ENE) 10:37:31 435.000
Cosmos 2504 30 Jul 10:28:51 10:37:06 45° 87° (E) 10:45:11 435.465 / 435.565
QB50P2 30 Jul 10:28:53 10:31:49 18° 60° (ENE) 10:34:46 145.880/145.840
POLYITAN 1 30 Jul 10:31:28 10:34:27 19° 60° (ENE) 10:37:26 437.675
M-CUBED/EXP-1 PRIME 30 Jul 10:33:45 10:37:15 20° 97° (E) 10:40:44 437.505
SEEDS 30 Jul 10:35:23 10:38:54 27° 295° (WNW) 10:42:24 437.485
JAS-2 30 Jul 10:39:10 10:41:22 12° 52° (NE) 10:43:30 435.910
COMPASS 1 30 Jul 10:40:14 10:43:55 32° 293° (WNW) 10:47:35 437.405
UNISAT 6 30 Jul 10:45:46 10:50:26 70° 258° (WSW) 10:55:10 437.425
AUBIESAT-1 30 Jul 10:56:23 11:00:21 27° 99° (E) 11:04:16 437.475
DELFI C3 30 Jul 10:56:53 11:00:49 63° 102° (ESE) 11:04:43 145.870
YUBILEINY 30 Jul 11:01:47 11:10:26 58° 287° (WNW) 11:19:11 435.215
AAUSAT CUBESAT 2 30 Jul 11:05:15 11:08:31 23° 296° (WNW) 11:11:46 437.432
NANOSAT C BR1 30 Jul 11:09:58 11:13:53 38° 68° (ENE) 11:17:51 145.865
CINEMA 3 30 Jul 11:10:46 11:13:02 13° 306° (NW) 11:15:19 145.822/145.860
FUNcube-1 30 Jul 11:11:12 11:15:34 50° 290° (WNW) 11:19:48 145.935
DUCHIFAT 1 30 Jul 11:12:27 11:16:22 37° 68° (ENE) 11:20:19 145.980
BUGSAT 1 30 Jul 11:12:57 11:15:55 19° 61° (ENE) 11:18:56 437.445
ZACube-1 30 Jul 11:14:15 11:18:33 45° 291° (WNW) 11:22:44 437.345
UWE-3 30 Jul 11:22:16 11:26:12 28° 296° (WNW) 11:30:02 435.000/436.395/437.385
ANTELSAT 30 Jul 11:24:50 11:29:00 31° 265° (W) 11:33:13 437.575/2403.000
SO-50 30 Jul 11:27:16 11:29:59 15° 346° (NNW) 11:32:41 436.795
Cosmos 2491 30 Jul 11:29:08 11:33:47 16° 289° (WNW) 11:38:26 435.465 / 435.565
RS-15 30 Jul 11:33:27 11:44:31 39° 359° (N) 11:55:50 29.354- 29.394
QB50P1 30 Jul 11:34:12 11:38:26 69° 73° (ENE) 11:42:43 145.935-145.965
POPSAT HIP 1 30 Jul 11:41:00 11:45:15 79° 76° (ENE) 11:49:34 437.405
HO-68 30 Jul 11:47:59 11:52:56 20° 313° (NW) 11:57:53 435.675
Oscar 11 30 Jul 11:49:22 11:52:40 22° 298° (WNW) 11:55:57 145.826/435.025
CUBEBUG 1 30 Jul 11:49:46 11:52:26 16° 89° (E) 11:55:04 437.445
CUBEBUG 2 30 Jul 11:53:29 11:55:39 13° 305° (NW) 11:57:47 437.445
ESTCUBE 1 30 Jul 11:56:27 12:00:13 26° 94° (E) 12:03:57 437.505/2401.250
HUMSAT D 30 Jul 11:56:46 12:00:56 63° 287° (WNW) 12:05:01 437.325/437.525
Oscar 19 30 Jul 11:57:06 12:00:00 15° 54° (NE) 12:02:56 437.125/150
VELOX 1 30 Jul 11:58:10 12:00:57 16° 90° (E) 12:03:45 145.980
AO-7 30 Jul 12:02:58 12:03:16 10° 20° (NNE) 12:03:33 29.400- 29.500
QB50P2 30 Jul 12:03:00 12:07:13 59° 259° (W) 12:11:29 145.880/145.840
POLYITAN 1 30 Jul 12:05:38 12:09:51 58° 259° (W) 12:14:07 437.675
M-CUBED/EXP-1 PRIME 30 Jul 12:07:27 12:12:05 61° 295° (WNW) 12:16:44 437.505
TIGRISAT 30 Jul 12:07:27 12:10:02 15° 273° (W) 12:12:40 435.000
Gurwin Techsat 1B 30 Jul 12:09:43 12:10:40 10° 48° (NE) 12:11:35 435.225
JAS-2 30 Jul 12:19:57 12:25:38 67° 71° (ENE) 12:30:53 435.910
Cosmos 2504 30 Jul 12:21:45 12:30:23 53° 288° (WNW) 12:38:53 435.465 / 435.565
DX 1 30 Jul 12:29:30 12:33:02 23° 93° (E) 12:36:33 434.975-435.025
AUBIESAT-1 30 Jul 12:30:29 12:34:56 45° 297° (WNW) 12:39:20 437.475
DELFI C3 30 Jul 12:32:55 12:35:13 15° 300° (WNW) 12:37:30 145.870
UKube-1 30 Jul 12:36:13 12:39:36 22° 93° (E) 12:42:57 .
AISAT 30 Jul 12:42:25 12:46:41 43° 98° (E) 12:50:58 437.250
NANOSAT C BR1 30 Jul 12:46:12 12:49:44 25° 266° (W) 12:53:18 145.865
BUGSAT 1 30 Jul 12:46:57 12:50:57 51° 260° (W) 12:55:04 437.445
DUCHIFAT 1 30 Jul 12:48:38 12:52:09 25° 266° (W) 12:55:43 145.980
50 SAT 30 Jul 12:53:33 12:57:07 56° 101° (E) 13:00:39 437.505
SPROUT 30 Jul 13:01:52 13:05:49 33° 96° (E) 13:09:44 437.525
YUBILEINY 30 Jul 13:04:36 13:09:37 16° 313° (NW) 13:14:40 435.215
SO-50 30 Jul 13:09:56 13:12:25 14° 11° (N) 13:14:52 436.795
QB50P1 30 Jul 13:12:22 13:14:41 14° 271° (W) 13:17:02 145.935-145.965
POPSAT HIP 1 30 Jul 13:19:47 13:21:36 12° 273° (W) 13:23:27 437.405
GONETS M04 30 Jul 13:22:09 13:24:08 11° 66° (ENE) 13:26:06
CUBEBUG 1 30 Jul 13:24:47 13:29:10 67° 288° (WNW) 13:33:33 437.445
AIST 1 30 Jul 13:32:32 13:36:45 70° 97° (E) 13:41:01
ESTCUBE 1 30 Jul 13:32:57 13:37:10 40° 292° (WNW) 13:41:21 437.505/2401.250
VELOX 1 30 Jul 13:33:27 13:37:52 65° 288° (WNW) 13:42:17 145.980
Oscar 19 30 Jul 13:33:27 13:38:34 83° 73° (ENE) 13:43:45 437.125/150
AO-85 30 Jul 13:37:29 13:42:38 50° 122° (ESE) 13:47:32 145.980
ITAMSAT 1 30 Jul 13:38:39 13:42:20 20° 57° (ENE) 13:46:02 435.822/435.867
TISAT 1 30 Jul 13:43:54 13:47:22 23° 93° (E) 13:50:48 437.305
M-CUBED/EXP-1 PRIME 30 Jul 13:43:54 13:45:44 12° 313° (NW) 13:47:35 437.505
Gurwin Techsat 1B 30 Jul 13:44:19 13:49:27 52° 68° (ENE) 13:54:37 435.225
AO-7 30 Jul 13:46:35 13:53:12 27° 46° (NE) 13:59:49 29.400- 29.500
RS-15 30 Jul 13:48:24 14:00:23 53° 32° (NNE) 14:12:24 29.354- 29.394
DX 1 30 Jul 14:05:15 14:09:25 43° 292° (WNW) 14:13:33 434.975-435.025
JAS-2 30 Jul 14:07:06 14:11:12 20° 269° (W) 14:15:06 435.910
UKube-1 30 Jul 14:11:43 14:15:52 45° 291° (WNW) 14:20:00 .
CUSAT 1 30 Jul 14:13:58 14:16:51 41° 76° (ENE) 14:20:24 437.405
BEESAT 30 Jul 14:17:14 14:18:57 12° 86° (E) 14:20:39 436.000
AISAT 30 Jul 14:19:20 14:22:58 25° 297° (WNW) 14:26:36 437.250
Cosmos 2504 30 Jul 14:21:38 14:26:10 15° 313° (NW) 14:30:39 435.465 / 435.565
50 SAT 30 Jul 14:28:25 14:30:20 14° 299° (WNW) 14:32:15 437.505
SPROUT 30 Jul 14:37:57 14:41:42 29° 295° (WNW) 14:45:27 437.525
ITUPSAT 1 30 Jul 14:41:31 14:45:00 20° 91° (E) 14:48:26 437.325
SO-50 30 Jul 14:50:11 14:54:23 30° 35° (NE) 14:58:27 436.795
CUBEBUG 1 30 Jul 15:04:01 15:04:37 10° 306° (NW) 15:05:13 437.445
Cosmos 2499 30 Jul 15:10:01 15:18:04 41° 86° (E) 15:25:48 435.465 / 435.565
GONETS M04 30 Jul 15:10:26 15:18:44 53° 89° (E) 15:27:06
AIST 1 30 Jul 15:12:33 15:14:54 14° 297° (WNW) 15:17:15
DANDE 30 Jul 15:12:53 15:15:29 59° 77° (ENE) 15:18:22 436.750
VELOX 1 30 Jul 15:12:58 15:13:29 10° 307° (NW) 15:14:00 145.980
Oscar 19 30 Jul 15:15:36 15:18:34 15° 272° (W) 15:21:33 437.125/150
ITAMSAT 1 30 Jul 15:16:02 15:21:16 76° 256° (WSW) 15:26:32 435.822/435.867
AO-85 30 Jul 15:18:24 15:23:18 37° 321° (NW) 15:27:55 145.980
TISAT 1 30 Jul 15:19:09 15:23:10 40° 292° (WNW) 15:27:09 437.305
Gurwin Techsat 1B 30 Jul 15:25:16 15:29:41 26° 267° (W) 15:34:08 435.225
HORYU 2 30 Jul 15:26:37 15:28:05 11° 54° (NE) 15:29:33 437.375
SWISSCUBE 30 Jul 15:31:46 15:36:30 61° 102° (ESE) 15:41:12 437.505
AO-7 30 Jul 15:36:35 15:44:58 86° 70° (ENE) 15:53:25 29.400- 29.500
BEESAT 30 Jul 15:52:40 15:57:29 85° 107° (ESE) 16:02:15 436.000
CUSAT 1 30 Jul 15:57:27 15:58:43 12° 267° (W) 16:00:02 437.405
MOZHAYETS 4 30 Jul 16:00:16 16:03:18 17° 89° (E) 16:06:20
